Simultaneous Nadir Overpasses (SNOs) Predictions

Prediction of SNOs between NOAA-19 and TERRA Satellite Orbit:

Table of predicted SNOs for the next 14.0 days since TLE Epoch: 5/25/2015
Index Date (NOAA-19) Time (NOAA-19) Lat,Lon (NOAA-19) SZA (NOAA-19 ) Date (TERRA) Time (TERRA) Lat,Lon (TERRA) SZA (TERRA ) Distance(km) Time Diff (sec)
1 05/25/2015 14:39:42 -72.63, 142.45 128.40 05/25/2015 14:40:50 -72.55, 144.58 128.41 71.33 68
2 05/25/2015 15:30:33 71.95, -48.94 50.95 05/25/2015 15:30:27 71.94, -48.88 50.94 2.71 6
3 05/25/2015 16:21:16 -71.17, 119.77 129.79 05/25/2015 16:20:08 -71.22, 117.55 129.82 79.80 68
4 05/27/2015 20:13:56 71.98,-119.81 50.60 05/27/2015 20:14:44 71.97,-119.89 50.60 3.06 48
5 05/27/2015 21:04:52 -71.89, 47.63 129.49 05/27/2015 21:04:13 -71.90, 47.62 129.49 1.59 39
6 05/30/2015 01:48:16 -72.00, -23.39 129.74 05/30/2015 01:48:29 -71.99, -23.31 129.75 3.13 13
7 05/30/2015 02:39:12 71.53, 144.75 49.81 05/30/2015 02:38:01 71.63, 143.72 49.87 37.80 71
8 06/01/2015 06:31:39 -72.07, -94.32 129.99 06/01/2015 06:32:45 -72.06, -94.25 129.99 2.45 66
9 06/01/2015 07:22:42 71.93, 73.18 49.87 06/01/2015 07:22:13 71.91, 73.14 49.85 2.02 29
10 06/03/2015 12:06:06 72.03, 2.17 49.68 06/03/2015 12:06:28 72.03, 2.26 49.68 3.00 22
11 06/03/2015 12:57:00 -71.90, 169.69 130.45 06/03/2015 12:55:58 -71.91, 169.69 130.45 1.12 62
12 06/05/2015 16:49:31 72.19, -68.95 49.58 06/05/2015 16:50:43 72.13, -68.63 49.53 12.76 72
13 06/05/2015 17:40:23 -71.98, 98.73 130.63 06/05/2015 17:40:14 -71.96, 98.71 130.65 1.93 9
14 06/07/2015 22:23:46 -72.06, 27.77 130.78 06/07/2015 22:24:29 -72.05, 27.81 130.78 1.38 43
15 06/07/2015 23:14:50 71.92,-164.73 49.09 06/07/2015 23:13:57 71.90,-164.82 49.06 3.59 53




NCC Satellite Simultaneous Nadir Overpasses (SNOs) Prediction Service
